TimeCST,TemperatureF,Dew PointF,Humidity,Sea Level PressureIn,VisibilityMPH,Wind Direction,Wind SpeedMPH,Gust SpeedMPH,PrecipitationIn,Events,Conditions,WindDirDegrees,DateUTC
12:00 AM,69,59,62,29.86,12,East,13.8,,,,Scattered Clouds,100,2013-03-05 06:00:00
12:00 AM,69.8,59.0,68,30.04,6.2,East,13.8,28.8,N/A,,Partly Cloudy,100,2013-03-05 06:00:00
1:00 AM,69.8,59.0,68,30.01,6.2,ESE,11.5,23.0,N/A,,Partly Cloudy,110,2013-03-05 07:00:00
2:00 AM,68.0,59.0,73,29.99,6.2,ESE,9.2,20.7,N/A,,Partly Cloudy,110,2013-03-05 08:00:00
3:00 AM,69,59,64,29.81,12,East,11.5,,,,Scattered Clouds,100,2013-03-05 09:00:00
3:00 AM,69.8,59.0,68,29.98,6.2,East,11.5,23.0,N/A,,Partly Cloudy,100,2013-03-05 09:00:00
4:00 AM,69.8,59.0,68,29.99,6.2,East,11.5,24.2,N/A,,Scattered Clouds,100,2013-03-05 10:00:00
5:00 AM,69.8,59.0,68,30.01,6.2,ESE,12.7,-,N/A,,Partly Cloudy,110,2013-03-05 11:00:00
6:00 AM,69,59,63,29.89,12,East,13.8,,,,Scattered Clouds,100,2013-03-05 12:00:00
6:00 AM,68.0,59.0,73,30.02,6.2,East,13.8,25.3,N/A,,Scattered Clouds,100,2013-03-05 12:00:00
7:00 AM,69.8,59.0,68,30.03,6.2,East,13.8,25.3,N/A,,Mostly Cloudy,100,2013-03-05 13:00:00
8:00 AM,71.6,59.0,64,30.04,-9999.0,East,17.3,34.5,N/A,,Clear,100,2013-03-05 14:00:00
9:00 AM,76,60,49,29.90,12,East,15.0,,,,Scattered Clouds,100,2013-03-05 15:00:00
9:00 AM,77.0,60.8,57,30.06,6.2,East,15.0,26.5,N/A,,Scattered Clouds,100,2013-03-05 15:00:00
10:00 AM,78.8,59.0,51,30.05,6.2,ESE,15.0,27.6,N/A,,Partly Cloudy,110,2013-03-05 16:00:00
11:00 AM,80.6,59.0,48,30.04,6.2,East,13.8,25.3,N/A,,Partly Cloudy,100,2013-03-05 17:00:00
12:00 PM,83,59,34,29.85,12,ESE,13.8,,,,Scattered Clouds,110,2013-03-05 18:00:00
12:00 PM,84.2,59.0,42,30.01,6.2,ESE,13.8,25.3,N/A,,Mostly Cloudy,110,2013-03-05 18:00:00
1:00 PM,84.2,59.0,42,30.00,6.2,East,13.8,-,N/A,,Mostly Cloudy,100,2013-03-05 19:00:00
2:00 PM,82.4,60.8,48,29.98,6.2,East,13.8,-,N/A,,Mostly Cloudy,100,2013-03-05 20:00:00
3:00 PM,82,60,37,29.78,12,ESE,10.4,,,,Partly Cloudy,120,2013-03-05 21:00:00
3:00 PM,82.4,60.8,48,29.96,6.2,ESE,10.4,-,N/A,,Mostly Cloudy,120,2013-03-05 21:00:00
4:00 PM,78.8,60.8,54,29.95,6.2,ESE,11.5,23.0,N/A,,Scattered Clouds,120,2013-03-05 22:00:00
5:00 PM,77.0,60.8,57,29.96,6.2,ESE,11.5,23.0,N/A,,Scattered Clouds,110,2013-03-05 23:00:00
6:00 PM,73,61,58,29.85,12,ESE,12.7,,,,Scattered Clouds,110,2013-03-06 00:00:00
6:00 PM,73.4,60.8,65,29.99,6.2,ESE,12.7,-,N/A,,Scattered Clouds,110,2013-03-06 00:00:00
7:00 PM,71.6,62.6,73,30.01,-9999.0,East,11.5,-,N/A,,Clear,100,2013-03-06 01:00:00
8:00 PM,71.6,62.6,73,30.03,-9999.0,ESE,10.4,21.9,N/A,,Clear,110,2013-03-06 02:00:00
9:00 PM,70,62,68,29.89,12,East,10.4,,,,,100,2013-03-06 03:00:00
9:00 PM,69.8,62.6,78,30.04,-9999.0,East,10.4,21.9,N/A,,Clear,100,2013-03-06 03:00:00
10:00 PM,71.6,62.6,73,30.04,-9999.0,East,13.8,25.3,N/A,,Clear,100,2013-03-06 04:00:00
11:00 PM,71.6,60.8,69,30.04,-9999.0,East,11.5,23.0,N/A,,Clear,100,2013-03-06 05:00:00